Decorah, Iowa, United States (52101)
Lat: 43.30N, Lon: 91.79W
Wx Zone: IAZ010
Local Info
Past Weather Observations for Today

NOTE: This archive is for the closest National Weather Service station to Decorah. Information may differ from the station used for current weather conditions.

Click here for Long-term Archive

Time Weather Temperature Dewpoint Humidity Pressure Winds Precip Visibility
08:55
Clear
43°F / 6°C 37°F / 3°C 81% 30.3 in
(1026 mb)
SSE 10.4 mph
(SSE 17 kph)
- 10SM
08:35
Clear
43°F / 6°C 37°F / 3°C 81% 30.27 in
(1025 mb)
SSE 10.4 mph
(SSE 17 kph)
- 10SM
08:15
Clear
41°F / 5°C 37°F / 3°C 87% 30.27 in
(1025 mb)
SSE 9.2 mph
(SSE 15 kph)
- 10SM
07:55
Clear
39°F / 4°C 36°F / 2°C 87% 30.3 in
(1026 mb)
SSE 5.8 mph
(SSE 9 kph)
- 10SM
07:35
Clear
37°F / 3°C 36°F / 2°C 93% 30.3 in
(1026 mb)
SSE 5.8 mph
(SSE 9 kph)
- 9SM
07:15
Clear
37°F / 3°C 36°F / 2°C 93% 30.3 in
(1026 mb)
SE 5.8 mph
(SE 9 kph)
- 8SM
06:55
Clear
36°F / 2°C 36°F / 2°C 100% 30.27 in
(1025 mb)
SE 6.9 mph
(SE 11 kph)
- 7SM
06:35
Clear
36°F / 2°C 34°F / 1°C 93% 30.27 in
(1025 mb)
SE 5.8 mph
(SE 9 kph)
- 8SM
06:15
Clear
36°F / 2°C 34°F / 1°C 93% 30.27 in
(1025 mb)
SE 8.1 mph
(SE 13 kph)
- 7SM
05:55
Clear
36°F / 2°C 36°F / 2°C 100% 30.3 in
(1026 mb)
SE 5.8 mph
(SE 9 kph)
- 8SM
05:35
Clear
36°F / 2°C 36°F / 2°C 100% 30.27 in
(1025 mb)
SSE 8.1 mph
(SSE 13 kph)
- 8SM
05:15
Clear
36°F / 2°C 36°F / 2°C 100% 30.27 in
(1025 mb)
SE 8.1 mph
(SE 13 kph)
- 8SM
04:55
Clear
36°F / 2°C 36°F / 2°C 100% 30.27 in
(1025 mb)
SSE 8.1 mph
(SSE 13 kph)
- 8SM
04:35
Clear
37°F / 3°C 36°F / 2°C 93% 30.27 in
(1025 mb)
SE 6.9 mph
(SE 11 kph)
- 9SM
04:15
Clear
37°F / 3°C 36°F / 2°C 93% 30.27 in
(1025 mb)
SE 6.9 mph
(SE 11 kph)
- 10SM
03:55
Clear
37°F / 3°C 36°F / 2°C 93% 30.27 in
(1025 mb)
SE 8.1 mph
(SE 13 kph)
- 10SM
03:35
Clear
37°F / 3°C 36°F / 2°C 93% 30.27 in
(1025 mb)
SE 6.9 mph
(SE 11 kph)
- 10SM
03:15
Clear
37°F / 3°C 36°F / 2°C 93% 30.27 in
(1025 mb)
SE 6.9 mph
(SE 11 kph)
- 10SM
02:55
Clear
37°F / 3°C 36°F / 2°C 93% 30.24 in
(1024 mb)
SE 6.9 mph
(SE 11 kph)
- 10SM
02:35
Clear
37°F / 3°C 36°F / 2°C 93% 30.24 in
(1024 mb)
Variable 6.9 mph
(Variable 11 kph)
- 10SM
02:15
Clear
37°F / 3°C 36°F / 2°C 93% 30.24 in
(1024 mb)
SE 6.9 mph
(SE 11 kph)
- 10SM
01:55
Clear
37°F / 3°C 36°F / 2°C 93% 30.24 in
(1024 mb)
SE 8.1 mph
(SE 13 kph)
- 10SM
01:35
Clear
37°F / 3°C 36°F / 2°C 93% 30.24 in
(1024 mb)
SE 9.2 mph
(SE 15 kph)
- 10SM
01:15
Clear
39°F / 4°C 36°F / 2°C 87% 30.24 in
(1024 mb)
SE 9.2 mph
(SE 15 kph)
- 10SM
00:55
Clear
39°F / 4°C 36°F / 2°C 87% 30.24 in
(1024 mb)
SE 8.1 mph
(SE 13 kph)
- 10SM
00:35
Clear
39°F / 4°C 36°F / 2°C 87% 30.24 in
(1024 mb)
SE 8.1 mph
(SE 13 kph)
- 10SM
00:15
Clear
39°F / 4°C 36°F / 2°C 87% 30.24 in
(1024 mb)
SE 8.1 mph
(SE 13 kph)
- 10SM
Time Weather Temperature Dewpoint Humidity Pressure Winds Precip Visibility


Weather for websites

WeatherForYou.com, LLC is not responsible for any damages or problems caused by this service. Current weather conditions are obtained from the closest station including government and personal stations which may have varying degrees of accuracy. Weather forecasts are derived from the NOAA NDFD. Like all things, this site belongs to Jesus Christ... He just trusts me to maintain it. If you have any questions or comments email webmaster@weatherforyou.com

Copyright © 2014, WeatherForYou.com LLC. All rights reserved.